DW7447 Weather Reports


Display with metric or nautical units.
time (UTC)temp
F
wind
direction
speed
MPH
gust
MPH
rain 1hr
in
rain 24hr
in
rain mn
in
humidity
%
barometer
mb
20260904131147 64 248 10.0 26.0 0.00 0.20 0.08 69 1007.0
20260904130647 63 269 14.0 26.0 0.00 0.20 0.08 73 1007.0
20260904130147 63 275 6.0 18.0 0.00 0.20 0.08 73 1006.9
20260904125647 63 245 11.0 18.0 0.00 0.20 0.08 73 1006.9
20260904125146 63 227 8.0 22.0 0.00 0.20 0.08 72 1006.8
20260904124646 63 285 8.0 22.0 0.00 0.20 0.08 71 1006.7
20260904124146 63 238 13.0 24.0 0.00 0.20 0.08 72 1006.8
20260904123644 63 227 14.0 24.0 0.00 0.20 0.08 72 1006.9
20260904123146 64 285 11.0 23.0 0.00 0.20 0.08 72 1006.7
20260904122646 64 221 11.0 24.0 0.00 0.20 0.08 72 1006.7
20260904122146 64 259 11.0 24.0 0.00 0.20 0.08 72 1006.5
20260904121646 65 243 9.0 24.0 0.00 0.20 0.08 72 1006.5
20260904121146 65 166 13.0 24.0 0.00 0.20 0.08 71 1006.6
20260904120145 65 259 16.0 26.0 0.00 0.20 0.08 70 1006.2
20260904115646 64 281 16.0 26.0 0.00 0.20 0.08 71 1006.2
20260904115147 63 241 13.0 23.0 0.00 0.20 0.08 70 1006.1
20260904114650 64 223 13.0 23.0 0.00 0.20 0.08 70 1006.1
20260904114150 64 244 15.0 23.0 0.00 0.20 0.08 71 1006.0
20260904113646 63 244 10.0 21.0 0.00 0.20 0.08 73 1005.9
20260904113147 63 223 12.0 21.0 0.00 0.20 0.08 73 1006.0
20260904112647 63 238 10.0 21.0 0.00 0.20 0.08 73 1006.0
20260904111646 64 224 11.0 18.0 0.00 0.20 0.08 73 1005.9
20260904111144 64 293 7.0 22.0 0.00 0.20 0.08 72 1005.7
20260904110645 64 262 10.0 22.0 0.00 0.20 0.08 71 1005.8
20260904110145 64 214 7.0 23.0 0.00 0.20 0.08 72 1005.9
20260904105645 64 227 16.0 23.0 0.00 0.20 0.08 73 1005.7
20260904105146 64 234 10.0 20.0 0.00 0.20 0.08 74 1005.7
20260904104145 64 238 6.0 17.0 0.00 0.20 0.08 73 1005.7
20260904103645 64 216 9.0 17.0 0.00 0.20 0.08 72 1005.6
20260904103145 64 237 10.0 20.0 0.00 0.20 0.08 73 1005.4
20260904102644 64 251 11.0 21.0 0.00 0.20 0.08 71 1005.3
20260904102132 63 243 11.0 24.0 0.00 0.20 0.08 73 1005.3
20260904101611 62 223 15.0 24.0 0.00 0.20 0.08 75 1005.3
20260904101104 62 220 8.0 16.0 0.00 0.20 0.08 74 1005.3
20260904100605 62 233 8.0 22.0 0.00 0.20 0.08 74 1005.3
20260904100106 62 223 12.0 22.0 0.00 0.20 0.08 75 1005.3
20260904095604 62 248 14.0 21.0 0.00 0.20 0.08 75 1005.4
20260904094606 62 292 10.0 18.0 0.00 0.20 0.08 76 1005.2
20260904094047 62 213 8.0 18.0 0.00 0.20 0.08 76 1005.3
20260904093544 62 268 9.0 17.0 0.00 0.20 0.08 76 1005.3
20260904093044 62 259 11.0 23.0 0.00 0.20 0.08 76 1005.3
20260904092549 63 213 14.0 23.0 0.00 0.20 0.08 77 1005.4
20260904092046 63 261 9.0 19.0 0.00 0.20 0.08 77 1005.2
20260904091538 63 224 6.0 18.0 0.00 0.20 0.08 79 1005.3
20260904090507 61 233 10.0 18.0 0.00 0.20 0.08 81 1005.1
20260904090015 61 268 9.0 18.0 0.00 0.20 0.08 81 1005.2
20260904085506 60 259 9.0 15.0 0.00 0.20 0.08 81 1005.1
20260904084444 60 210 8.0 20.0 0.00 0.20 0.08 82 1005.1
20260904083938 60 203 13.0 20.0 0.00 0.20 0.08 83 1005.1
20260904083435 60 231 6.0 15.0 0.00 0.20 0.08 82 1005.1
20260904082932 60 241 10.0 15.0 0.00 0.20 0.08 82 1005.0
20260904082432 60 293 8.0 15.0 0.00 0.20 0.08 82 1005.0
20260904081932 60 255 8.0 18.0 0.00 0.20 0.08 82 1004.9
20260904080919 59 233 7.0 16.0 0.00 0.22 0.08 84 1005.1
20260904080406 59 254 9.0 18.0 0.00 0.22 0.08 84 1005.1
20260904075405 59 282 9.0 15.0 0.00 0.22 0.08 85 1004.8
20260904074855 59 272 9.0 23.0 0.00 0.22 0.08 86 1004.8
20260904074347 59 166 11.0 25.0 0.00 0.22 0.08 86 1004.6
20260904073844 59 238 12.0 25.0 0.00 0.22 0.08 89 1004.5
20260904073334 59 231 7.0 19.0 0.00 0.22 0.08 92 1004.5
20260904072832 59 228 9.0 16.0 0.00 0.22 0.08 93 1004.5
20260904071835 59 283 6.0 15.0 0.00 0.22 0.08 93 1004.5
20260904071333 58 238 7.0 18.0 0.00 0.22 0.08 93 1004.3
20260904070816 58 250 11.0 18.0 0.00 0.22 0.08 94 1004.3
20260904065803 58 192 6.0 12.0 0.00 0.22 0.08 94 1004.2
20260904065307 58 210 7.0 16.0 0.00 0.22 0.08 95 1004.1
20260904064756 58 204 7.0 17.0 0.00 0.22 0.08 95 1004.0
20260904064250 58 217 6.0 17.0 0.00 0.22 0.08 95 1004.1
20260904063744 58 192 5.0 14.0 0.00 0.22 0.08 95 1004.0
20260904063245 58 214 8.0 16.0 0.00 0.22 0.08 95 1004.1
20260904062748 58 228 8.0 16.0 0.00 0.22 0.08 95 1004.1
20260904062247 58 234 5.0 9.0 0.00 0.22 0.08 95 1004.1
20260904061248 58 173 4.0 9.0 0.00 0.22 0.08 95 1004.3
20260904060744 58 178 6.0 12.0 0.00 0.22 0.08 95 1004.3
20260904055745 58 213 4.0 15.0 0.00 0.22 0.08 95 1004.4
20260904055245 58 162 8.0 15.0 0.00 0.22 0.08 95 1004.3
20260904054748 58 224 6.0 12.0 0.00 0.22 0.08 95 1004.3
20260904054244 58 207 7.0 15.0 0.00 0.22 0.08 95 1004.4
20260904053747 58 197 8.0 15.0 0.00 0.22 0.08 95 1004.4
20260904053249 58 193 7.0 15.0 0.00 0.22 0.08 95 1004.3
20260904052745 58 186 9.0 15.0 0.00 0.22 0.08 95 1004.4
20260904052245 58 171 6.0 12.0 0.00 0.22 0.08 95 1004.3
20260904051746 58 220 6.0 12.0 0.00 0.22 0.08 95 1004.5
20260904051245 58 190 4.0 12.0 0.00 0.22 0.08 95 1004.6
20260904050746 58 217 5.0 12.0 0.00 0.22 0.08 95 1004.7
20260904050246 58 195 4.0 9.0 0.00 0.22 0.08 95 1004.7
20260904045745 58 206 5.0 11.0 0.00 0.22 0.08 95 1004.8
20260904045244 58 209 5.0 13.0 0.00 0.22 0.08 95 1004.9
20260904044746 58 204 9.0 13.0 0.00 0.22 0.08 95 1004.8
20260904044246 57 214 4.0 9.0 0.00 0.22 0.08 95 1004.4
20260904043746 57 212 5.0 9.0 0.00 0.22 0.08 95 1004.4
20260904043245 57 206 4.0 9.0 0.00 0.22 0.08 95 1004.4
20260904042748 57 200 5.0 9.0 0.00 0.22 0.08 95 1004.5
20260904041746 57 219 7.0 11.0 0.00 0.22 0.08 95 1004.4
20260904041245 57 209 4.0 13.0 0.00 0.22 0.08 95 1004.6
20260904040745 57 223 5.0 13.0 0.00 0.22 0.08 95 1004.4
20260904040245 57 186 6.0 11.0 0.00 0.22 0.08 95 1004.6
20260904035244 57 206 3.0 12.0 0.00 0.22 0.08 96 1004.8
20260904034746 57 188 3.0 9.0 0.00 0.22 0.08 96 1004.6
20260904034245 57 188 6.0 9.0 0.00 0.22 0.08 96 1004.7
20260904033745 57 197 5.0 11.0 0.00 0.22 0.08 96 1004.9
20260904033250 57 197 7.0 11.0 0.00 0.22 0.08 96 1005.0
20260904032244 57 252 3.0 12.0 0.00 0.22 0.08 96 1005.3
20260904031747 57 197 5.0 12.0 0.00 0.22 0.08 96 1005.5
20260904031245 57 182 4.0 12.0 0.00 0.22 0.08 96 1005.2
20260904030746 57 212 4.0 12.0 0.00 0.22 0.08 96 1005.2
20260904030245 57 192 5.0 12.0 0.00 0.22 0.08 96 1005.2
20260904025744 57 178 6.0 12.0 0.00 0.22 0.08 96 1005.5
20260904025247 57 166 4.0 9.0 0.00 0.22 0.08 96 1005.6
20260904024744 57 186 3.0 8.0 0.00 0.22 0.08 96 1005.7
20260904023745 57 188 3.0 12.0 0.00 0.22 0.08 96 1005.9
20260904023245 57 214 4.0 12.0 0.00 0.22 0.08 96 1005.9
20260904022746 57 202 4.0 12.0 0.00 0.22 0.08 96 1005.7
20260904021743 57 207 5.0 9.0 0.01 0.22 0.08 96 1005.8
20260904021246 57 197 5.0 12.0 0.01 0.22 0.08 96 1006.1
20260904020745 57 200 5.0 12.0 0.01 0.22 0.08 96 1005.9
20260904020243 57 207 4.0 11.0 0.01 0.22 0.08 96 1006.0
20260904015746 57 214 5.0 11.0 0.01 0.22 0.08 96 1006.0
20260904015248 57 203 5.0 11.0 0.01 0.22 0.08 96 1005.9
20260904014748 57 195 4.0 12.0 0.02 0.22 0.08 96 1006.0
20260904014244 57 186 5.0 12.0 0.02 0.22 0.08 96 1005.9
20260904013245 57 209 4.0 11.0 0.02 0.22 0.08 96 1006.2
20260904012733 57 199 3.0 11.0 0.02 0.22 0.08 96 1006.2
20260904012233 57 182 7.0 13.0 0.02 0.21 0.07 96 1006.5
20260904011735 57 169 8.0 13.0 0.02 0.21 0.07 96 1006.3
20260904011233 57 196 6.0 12.0 0.02 0.21 0.07 96 1006.7
20260904010731 57 220 4.0 12.0 0.02 0.21 0.07 96 1006.8
20260904010232 57 207 3.0 9.0 0.03 0.21 0.07 96 1006.8
20260904005717 57 196 4.0 9.0 0.04 0.21 0.07 96 1007.0
20260904005204 57 176 5.0 11.0 0.03 0.20 0.06 96 1007.0
20260904004205 57 171 5.0 8.0 0.04 0.20 0.06 95 1007.4
20260904003704 57 192 5.0 9.0 0.04 0.20 0.06 95 1007.3
20260904003145 57 180 5.0 11.0 0.04 0.20 0.06 95 1007.7
20260904002643 57 196 4.0 11.0 0.03 0.20 0.06 95 1007.5
20260904002150 57 178 4.0 12.0 0.04 0.20 0.06 95 1007.6
20260904001648 57 182 6.0 12.0 0.05 0.20 0.06 95 1007.5
20260904001146 57 221 6.0 11.0 0.04 0.19 0.05 95 1007.5
20260904000645 58 200 5.0 12.0 0.03 0.18 0.04 95 1007.7
20260904000133 58 193 6.0 12.0 0.04 0.18 0.03 95 1007.8
20260903235632 58 206 4.0 9.0 0.03 0.17 0.03 95 1007.9
20260903234604 58 206 6.0 13.0 0.02 0.17 0.02 94 1008.1
20260903233045 58 210 6.0 12.0 0.03 0.17 0.02 94 1008.3
20260903231006 58 183 5.0 12.0 0.02 0.15 0.01 94 1008.7
20260903230506 58 214 5.0 16.0 0.02 0.15 0.01 94 1008.8
20260903230004 59 206 5.0 16.0 0.02 0.14 0.14 94 1008.8
20260903224945 59 240 6.0 12.0 0.02 0.14 0.14 94 1008.8
20260903224442 59 223 5.0 12.0 0.02 0.14 0.14 94 1008.9
20260903223433 59 195 6.0 11.0 0.01 0.13 0.13 94 1009.0
20260903222911 59 168 5.0 12.0 0.01 0.13 0.13 94 1009.0
20260903222407 59 176 7.0 12.0 0.01 0.13 0.13 94 1009.0
20260903221906 59 207 7.0 12.0 0.01 0.13 0.13 94 1009.0
20260903221406 59 206 6.0 14.0 0.01 0.13 0.13 94 1009.0
20260903220850 59 152 7.0 17.0 0.02 0.13 0.13 94 1008.9
20260903220344 59 213 7.0 17.0 0.02 0.13 0.13 94 1009.0
20260903215845 59 203 6.0 16.0 0.01 0.13 0.13 94 1009.2
20260903215343 59 213 7.0 12.0 0.01 0.13 0.13 94 1009.2
20260903214843 60 217 6.0 12.0 0.01 0.13 0.13 94 1009.1
20260903214333 60 171 5.0 12.0 0.01 0.13 0.13 94 1009.3
20260903213832 60 204 6.0 12.0 0.01 0.13 0.13 94 1009.4
20260903213306 60 223 8.0 15.0 0.01 0.13 0.13 94 1009.4
20260903212308 60 182 11.0 18.0 0.02 0.13 0.13 94 1009.4
20260903211807 60 200 6.0 19.0 0.02 0.13 0.13 94 1009.6
20260903211305 60 189 12.0 19.0 0.02 0.13 0.13 94 1009.6
20260903210806 60 197 6.0 14.0 0.01 0.12 0.12 94 1009.7
20260903205802 60 154 6.0 15.0 0.02 0.12 0.12 94 1009.7
20260903205306 60 155 9.0 18.0 0.02 0.12 0.12 94 1009.7
20260903204744 60 204 8.0 18.0 0.02 0.12 0.12 94 1009.6
20260903204243 60 212 7.0 18.0 0.02 0.12 0.12 94 1009.6
20260903203733 60 199 10.0 18.0 0.04 0.12 0.12 94 1009.6
20260903203231 61 196 9.0 18.0 0.06 0.12 0.12 94 1009.8
20260903202708 61 190 11.0 18.0 0.07 0.12 0.12 94 1009.8
20260903202205 61 172 9.0 19.0 0.07 0.11 0.11 94 1009.8
20260903201702 61 179 11.0 19.0 0.08 0.11 0.11 94 1009.9
20260903201205 61 196 9.0 16.0 0.09 0.11 0.11 94 1010.0
20260903200707 61 202 10.0 16.0 0.09 0.11 0.11 94 1009.9
20260903200203 61 175 5.0 11.0 0.08 0.10 0.10 94 1010.1
20260903195643 62 168 5.0 14.0 0.08 0.02 0.10 93 1010.3
20260903195145 62 204 5.0 14.0 0.07 0.02 0.09 92 1010.3
20260903194647 62 228 6.0 11.0 0.07 0.02 0.09 92 1010.3
20260903194145 62 166 4.0 11.0 0.06 0.02 0.09 92 1010.3
20260903193644 62 221 5.0 11.0 0.05 0.02 0.06 90 1010.5
20260903193144 62 219 7.0 11.0 0.03 0.02 0.06 90 1010.4
20260903192643 62 195 2.0 11.0 0.02 0.02 0.04 89 1010.3
20260903192145 63 209 5.0 9.0 0.01 0.02 0.03 88 1010.4
20260903191645 63 217 5.0 13.0 0.01 0.02 0.03 88 1010.3
20260903191144 63 206 4.0 14.0 0.00 0.02 0.02 88 1010.4
20260903190644 63 209 7.0 15.0 0.00 0.02 0.02 87 1010.4
20260903190145 63 213 7.0 20.0 0.00 0.02 0.02 87 1010.5
20260903185645 63 245 6.0 20.0 0.00 0.02 0.02 87 1010.5
20260903185144 63 202 10.0 18.0 0.00 0.02 0.02 87 1010.4
20260903184644 63 199 8.0 18.0 0.00 0.02 0.02 87 1010.3
20260903184145 63 219 9.0 16.0 0.00 0.02 0.02 87 1010.5
20260903183645 63 235 9.0 15.0 0.00 0.02 0.02 87 1010.5
20260903183144 63 196 7.0 19.0 0.00 0.02 0.02 88 1010.6
20260903182143 63 231 9.0 15.0 0.00 0.02 0.02 89 1010.7
20260903181644 63 199 9.0 15.0 0.00 0.02 0.02 89 1010.8
20260903181145 63 257 8.0 13.0 0.00 0.02 0.02 88 1010.8
20260903180644 63 209 9.0 13.0 0.01 0.02 0.02 88 1010.6
20260903175145 63 216 7.0 17.0 0.01 0.02 0.02 88 1010.6
20260903174644 63 238 8.0 14.0 0.01 0.02 0.02 88 1010.8
20260903174144 63 233 8.0 14.0 0.01 0.02 0.02 88 1010.8
20260903173644 64 210 4.0 15.0 0.01 0.02 0.02 88 1010.8
20260903173144 64 243 10.0 15.0 0.01 0.02 0.02 88 1010.7
20260903172646 64 221 7.0 18.0 0.01 0.02 0.02 87 1010.8
20260903172148 64 221 9.0 18.0 0.01 0.02 0.02 87 1010.7
20260903171646 64 231 6.0 18.0 0.01 0.02 0.02 87 1010.8
20260903171147 64 238 8.0 18.0 0.01 0.02 0.02 86 1010.8
20260903170645 64 237 7.0 14.0 0.00 0.02 0.02 86 1010.9
20260903170144 64 189 7.0 13.0 0.00 0.02 0.02 85 1010.9
20260903165147 65 213 6.0 14.0 0.00 0.02 0.02 82 1011.1
20260903164145 66 226 9.0 20.0 0.00 0.02 0.02 80 1011.4
20260903162644 67 203 10.0 22.0 0.00 0.02 0.02 77 1011.2
20260903161644 67 223 9.0 21.0 0.00 0.02 0.02 77 1011.5
20260903161145 67 214 11.0 22.0 0.00 0.02 0.02 76 1011.4
20260903160645 67 234 8.0 22.0 0.00 0.02 0.02 76 1011.5
20260903154645 68 231 13.0 28.0 0.00 0.02 0.02 75 1011.8
20260903154144 68 220 12.0 28.0 0.00 0.02 0.02 76 1011.8
20260903153644 68 199 8.0 18.0 0.00 0.02 0.02 74 1011.7
20260903153144 68 244 12.0 24.0 0.00 0.02 0.02 74 1011.8
20260903152644 68 228 12.0 24.0 0.00 0.02 0.02 74 1011.9
20260903152144 69 202 11.0 21.0 0.00 0.02 0.02 73 1011.8
20260903151644 69 188 10.0 24.0 0.00 0.02 0.02 72 1011.9
20260903151144 69 209 14.0 24.0 0.00 0.02 0.02 71 1012.0
20260903150132 69 217 10.0 21.0 0.00 0.02 0.02 70 1011.9
20260903145632 70 257 11.0 20.0 0.00 0.02 0.02 70 1011.9
20260903145105 70 272 11.0 20.0 0.00 0.02 0.02 69 1012.1
20260903144606 70 271 9.0 16.0 0.00 0.02 0.02 69 1011.9
20260903143042 70 265 7.0 19.0 0.00 0.03 0.02 69 1012.0
20260903142545 69 231 10.0 19.0 0.00 0.03 0.02 69 1012.0
20260903142043 69 219 8.0 23.0 0.00 0.03 0.02 68 1011.9
20260903141542 69 244 13.0 23.0 0.00 0.03 0.02 68 1011.8
20260903141047 69 223 11.0 22.0 0.00 0.03 0.02 70 1011.7
20260903140541 69 212 10.0 22.0 0.00 0.03 0.02 69 1011.6
20260903140039 69 200 12.0 24.0 0.00 0.03 0.02 69 1011.7
20260903135537 69 233 15.0 24.0 0.00 0.03 0.02 69 1011.9
20260903135008 68 202 9.0 23.0 0.00 0.03 0.02 69 1011.8
20260903134509 68 296 11.0 23.0 0.00 0.03 0.02 69 1011.7
20260903133948 69 217 16.0 23.0 0.00 0.03 0.02 69 1011.6
20260903133442 69 224 16.0 20.0 0.00 0.03 0.02 70 1011.7
20260903132944 68 257 8.0 20.0 0.00 0.03 0.02 70 1011.9
20260903132448 67 257 13.0 19.0 0.00 0.03 0.02 70 1012.1
20260903131943 68 226 6.0 26.0 0.00 0.03 0.02 68 1012.1